owner,sensor,date,latitude,longitude,vertical_datum,mass_concentration_of_oxygen_in_sea_water,qcFlag 
DISL,ioos:station:DISL:PPTA:1,2017-01-01T06:30:00Z,30.2791,-87.5561,1.516,7.11,1111122 
DISL,ioos:station:DISL:PPTA:1,2017-01-01T07:00:00Z,30.2791,-87.5561,1.485,7.17,1111122 
DISL,ioos:station:DISL:PPTA:1,2017-01-01T07:30:00Z,30.2791,-87.5561,1.445,7.09,1111122 
DISL,ioos:station:DISL:PPTA:1,2017-01-01T08:00:00Z,30.2791,-87.5561,1.443,7.08,1111122 
DISL,ioos:station:DISL:PPTA:1,2017-01-01T08:30:00Z,30.2791,-87.5561,1.392,7.05,1111122 
DISL,ioos:station:DISL:PPTA:1,2017-01-01T09:00:00Z,30.2791,-87.5561,1.415,7.16,1111122 
DISL,ioos:station:DISL:PPTA:1,2017-01-01T09:30:00Z,30.2791,-87.5561,1.431,7.43,1111122 
DISL,ioos:station:DISL:PPTA:1,2017-01-01T10:00:00Z,30.2791,-87.5561,1.393,7.16,1111122 
DISL,ioos:station:DISL:PPTA:1,2017-01-01T10:30:00Z,30.2791,-87.5561,1.397,7.06,1111122 
DISL,ioos:station:DISL:PPTA:1,2017-01-01T11:00:00Z,30.2791,-87.5561,1.383,7.04,1111122 
DISL,ioos:station:DISL:PPTA:1,2017-01-01T11:30:00Z,30.2791,-87.5561,1.401,7.11,1111122 
DISL,ioos:station:DISL:PPTA:1,2017-01-01T12:00:00Z,30.2791,-87.5561,1.38,7.18,1111122 
DISL,ioos:station:DISL:PPTA:1,2017-01-01T12:30:00Z,30.2791,-87.5561,1.37,7.13,1111122 
DISL,ioos:station:DISL:PPTA:1,2017-01-01T13:00:00Z,30.2791,-87.5561,1.381,7.26,1111122 
DISL,ioos:station:DISL:PPTA:1,2017-01-01T13:30:00Z,30.2791,-87.5561,1.384,7.08,1111122 
DISL,ioos:station:DISL:PPTA:1,2017-01-01T14:00:00Z,30.2791,-87.5561,1.384,7.35,1111122 
DISL,ioos:station:DISL:PPTA:1,2017-01-01T14:30:00Z,30.2791,-87.5561,1.375,7.25,1111122 
DISL,ioos:station:DISL:PPTA:1,2017-01-01T15:00:00Z,30.2791,-87.5561,1.386,6.89,1111122 
DISL,ioos:station:DISL:PPTA:1,2017-01-01T15:30:00Z,30.2791,-87.5561,1.39,7.39,1111122 
DISL,ioos:station:DISL:PPTA:1,2017-01-01T16:00:00Z,30.2791,-87.5561,1.377,7.31,1111122 
DISL,ioos:station:DISL:PPTA:1,2017-01-01T16:30:00Z,30.2791,-87.5561,1.386,7.53,1111122 
DISL,ioos:station:DISL:PPTA:1,2017-01-01T17:00:00Z,30.2791,-87.5561,1.369,7.11,1111122 
DISL,ioos:station:DISL:PPTA:1,2017-01-01T17:30:00Z,30.2791,-87.5561,1.383,7.28,1111122 
DISL,ioos:station:DISL:PPTA:1,2017-01-01T18:00:00Z,30.2791,-87.5561,1.397,7.07,1111122 
DISL,ioos:station:DISL:PPTA:1,2017-01-01T18:30:00Z,30.2791,-87.5561,1.404,7.46,1111122 
DISL,ioos:station:DISL:PPTA:1,2017-01-01T19:00:00Z,30.2791,-87.5561,1.394,7.57,1111122 
DISL,ioos:station:DISL:PPTA:1,2017-01-01T19:30:00Z,30.2791,-87.5561,1.406,7.55,1111122 
DISL,ioos:station:DISL:PPTA:1,2017-01-01T20:00:00Z,30.2791,-87.5561,1.419,7.46,1111122 
DISL,ioos:station:DISL:PPTA:1,2017-01-01T20:30:00Z,30.2791,-87.5561,1.429,7.53,1111122 
DISL,ioos:station:DISL:PPTA:1,2017-01-01T21:00:00Z,30.2791,-87.5561,1.452,7.52,1111122 
DISL,ioos:station:DISL:PPTA:1,2017-01-01T21:30:00Z,30.2791,-87.5561,1.472,7.63,1111122 
DISL,ioos:station:DISL:PPTA:1,2017-01-01T22:00:00Z,30.2791,-87.5561,1.48,7.63,1111122 
DISL,ioos:station:DISL:PPTA:1,2017-01-01T22:30:00Z,30.2791,-87.5561,1.496,7.68,1111122 
DISL,ioos:station:DISL:PPTA:1,2017-01-01T23:00:00Z,30.2791,-87.5561,1.493,7.65,1111122 
DISL,ioos:station:DISL:PPTA:1,2017-01-01T23:30:00Z,30.2791,-87.5561,1.524,7.63,1111122 
DISL,ioos:station:DISL:PPTA:1,2017-01-02T00:00:00Z,30.2791,-87.5561,1.53,7.58,1111122 
DISL,ioos:station:DISL:PPTA:1,2017-01-02T00:30:00Z,30.2791,-87.5561,1.553,7.49,1111122 
DISL,ioos:station:DISL:PPTA:1,2017-01-02T01:00:00Z,30.2791,-87.5561,1.597,7.39,1111122 
DISL,ioos:station:DISL:PPTA:1,2017-01-02T01:30:00Z,30.2791,-87.5561,1.61,7.41,1111122 
DISL,ioos:station:DISL:PPTA:1,2017-01-02T02:00:00Z,30.2791,-87.5561,1.636,7.27,1111122 
DISL,ioos:station:DISL:PPTA:1,2017-01-02T02:30:00Z,30.2791,-87.5561,1.651,7.38,1111122 
DISL,ioos:station:DISL:PPTA:1,2017-01-02T03:00:00Z,30.2791,-87.5561,1.67,7.36,1111122 
DISL,ioos:station:DISL:PPTA:1,2017-01-02T03:30:00Z,30.2791,-87.5561,1.657,7.31,1111122 
DISL,ioos:station:DISL:PPTA:1,2017-01-02T04:00:00Z,30.2791,-87.5561,1.696,7.37,1111122 
DISL,ioos:station:DISL:PPTA:1,2017-01-02T04:30:00Z,30.2791,-87.5561,1.677,7.5,1111122 
DISL,ioos:station:DISL:PPTA:1,2017-01-02T05:00:00Z,30.2791,-87.5561,1.688,7.42,1111122 
DISL,ioos:station:DISL:PPTA:1,2017-01-02T05:30:00Z,30.2791,-87.5561,1.623,7.34,1111122 
DISL,ioos:station:DISL:PPTA:1,2017-01-02T06:00:00Z,30.2791,-87.5561,1.671,7.56,1111122 
DISL,ioos:station:DISL:PPTA:1,2017-01-02T06:30:00Z,30.2791,-87.5561,1.699,7.54,1111122 
DISL,ioos:station:DISL:PPTA:1,2017-01-02T07:00:00Z,30.2791,-87.5561,1.672,7.43,1111122 
DISL,ioos:station:DISL:PPTA:1,2017-01-02T07:30:00Z,30.2791,-87.5561,1.686,7.39,1111122 
DISL,ioos:station:DISL:PPTA:1,2017-01-02T08:00:00Z,30.2791,-87.5561,1.647,7.27,1111122 
DISL,ioos:station:DISL:PPTA:1,2017-01-02T08:30:00Z,30.2791,-87.5561,1.645,7.33,1111122 
DISL,ioos:station:DISL:PPTA:1,2017-01-02T09:00:00Z,30.2791,-87.5561,1.612,7.55,1111122 
DISL,ioos:station:DISL:PPTA:1,2017-01-02T09:30:00Z,30.2791,-87.5561,1.587,7.46,1111122 
DISL,ioos:station:DISL:PPTA:1,2017-01-02T10:00:00Z,30.2791,-87.5561,1.547,7.4,1111122 
DISL,ioos:station:DISL:PPTA:1,2017-01-02T10:30:00Z,30.2791,-87.5561,1.53,7.37,1111122 
DISL,ioos:station:DISL:PPTA:1,2017-01-02T11:00:00Z,30.2791,-87.5561,1.515,7.29,1111122 
DISL,ioos:station:DISL:PPTA:1,2017-01-02T11:30:00Z,30.2791,-87.5561,1.513,7.52,1111122 
DISL,ioos:station:DISL:PPTA:1,2017-01-02T12:00:00Z,30.2791,-87.5561,1.473,7.51,1111122 
DISL,ioos:station:DISL:PPTA:1,2017-01-02T12:30:00Z,30.2791,-87.5561,1.474,7.62,1111122 
DISL,ioos:station:DISL:PPTA:1,2017-01-02T13:00:00Z,30.2791,-87.5561,1.459,7.66,1111122 
DISL,ioos:station:DISL:PPTA:1,2017-01-02T13:30:00Z,30.2791,-87.5561,1.443,7.67,1111122 
DISL,ioos:station:DISL:PPTA:1,2017-01-02T14:00:00Z,30.2791,-87.5561,1.449,7.8,1111122 
DISL,ioos:station:DISL:PPTA:1,2017-01-02T14:30:00Z,30.2791,-87.5561,1.426,7.8,1111122 
DISL,ioos:station:DISL:PPTA:1,2017-01-02T15:00:00Z,30.2791,-87.5561,1.437,7.85,1111122 
DISL,ioos:station:DISL:PPTA:1,2017-01-02T15:30:00Z,30.2791,-87.5561,1.425,7.86,1111122 
DISL,ioos:station:DISL:PPTA:1,2017-01-02T16:00:00Z,30.2791,-87.5561,1.414,7.88,1111122 
DISL,ioos:station:DISL:PPTA:1,2017-01-02T16:30:00Z,30.2791,-87.5561,1.419,7.91,1111122 
DISL,ioos:station:DISL:PPTA:1,2017-01-02T17:00:00Z,30.2791,-87.5561,1.383,7.96,1111122 
DISL,ioos:station:DISL:PPTA:1,2017-01-02T17:30:00Z,30.2791,-87.5561,1.378,7.99,1111122 
DISL,ioos:station:DISL:PPTA:1,2017-01-02T18:00:00Z,30.2791,-87.5561,1.39,8.0,1111122 
DISL,ioos:station:DISL:PPTA:1,2017-01-02T18:30:00Z,30.2791,-87.5561,1.415,7.82,1111122 
DISL,ioos:station:DISL:PPTA:1,2017-01-02T19:00:00Z,30.2791,-87.5561,1.414,7.73,1111122 
DISL,ioos:station:DISL:PPTA:1,2017-01-02T19:30:00Z,30.2791,-87.5561,1.435,6.97,1111122 
DISL,ioos:station:DISL:PPTA:1,2017-01-02T20:00:00Z,30.2791,-87.5561,1.479,7.19,1111122 
DISL,ioos:station:DISL:PPTA:1,2017-01-02T20:30:00Z,30.2791,-87.5561,1.402,6.67,1111122 
DISL,ioos:station:DISL:PPTA:1,2017-01-02T21:00:00Z,30.2791,-87.5561,1.496,7.63,1111122 
DISL,ioos:station:DISL:PPTA:1,2017-01-02T21:30:00Z,30.2791,-87.5561,1.439,7.62,1111122 
DISL,ioos:station:DISL:PPTA:1,2017-01-02T22:00:00Z,30.2791,-87.5561,1.328,7.7,1111122 
DISL,ioos:station:DISL:PPTA:1,2017-01-02T22:30:00Z,30.2791,-87.5561,1.424,8.26,1111122 
DISL,ioos:station:DISL:PPTA:1,2017-01-02T23:00:00Z,30.2791,-87.5561,1.448,7.71,1111122 
DISL,ioos:station:DISL:PPTA:1,2017-01-02T23:30:00Z,30.2791,-87.5561,1.512,7.0,1111122 
DISL,ioos:station:DISL:PPTA:1,2017-01-03T00:00:00Z,30.2791,-87.5561,1.497,7.53,1111122 
DISL,ioos:station:DISL:PPTA:1,2017-01-03T00:30:00Z,30.2791,-87.5561,1.526,7.25,1111122 
DISL,ioos:station:DISL:PPTA:1,2017-01-03T01:00:00Z,30.2791,-87.5561,1.563,7.46,1111122 
DISL,ioos:station:DISL:PPTA:1,2017-01-03T01:30:00Z,30.2791,-87.5561,1.515,7.63,1111122 
DISL,ioos:station:DISL:PPTA:1,2017-01-03T02:00:00Z,30.2791,-87.5561,1.559,8.27,1111122 
DISL,ioos:station:DISL:PPTA:1,2017-01-03T02:30:00Z,30.2791,-87.5561,1.537,7.94,1111122 
DISL,ioos:station:DISL:PPTA:1,2017-01-03T03:00:00Z,30.2791,-87.5561,1.628,7.88,1111122 
DISL,ioos:station:DISL:PPTA:1,2017-01-03T03:30:00Z,30.2791,-87.5561,1.631,6.54,1111122 
DISL,ioos:station:DISL:PPTA:1,2017-01-03T04:00:00Z,30.2791,-87.5561,1.593,7.21,1111122 
DISL,ioos:station:DISL:PPTA:1,2017-01-03T04:30:00Z,30.2791,-87.5561,1.623,6.69,1111122 
DISL,ioos:station:DISL:PPTA:1,2017-01-03T05:00:00Z,30.2791,-87.5561,1.618,7.53,1111122 
DISL,ioos:station:DISL:PPTA:1,2017-01-03T05:30:00Z,30.2791,-87.5561,1.599,7.1,1111122 
DISL,ioos:station:DISL:PPTA:1,2017-01-03T06:00:00Z,30.2791,-87.5561,1.603,7.17,1111122 
DISL,ioos:station:DISL:PPTA:1,2017-01-03T06:30:00Z,30.2791,-87.5561,1.603,6.08,1111122 
DISL,ioos:station:DISL:PPTA:1,2017-01-03T07:00:00Z,30.2791,-87.5561,1.596,6.97,1111122 
DISL,ioos:station:DISL:PPTA:1,2017-01-03T07:30:00Z,30.2791,-87.5561,1.638,7.38,1111122 
DISL,ioos:station:DISL:PPTA:1,2017-01-03T08:00:00Z,30.2791,-87.5561,1.627,6.98,1111122 
DISL,ioos:station:DISL:PPTA:1,2017-01-03T08:30:00Z,30.2791,-87.5561,1.598,7.36,1111122 
DISL,ioos:station:DISL:PPTA:1,2017-01-03T09:00:00Z,30.2791,-87.5561,1.595,7.75,1111122 
DISL,ioos:station:DISL:PPTA:1,2017-01-03T09:30:00Z,30.2791,-87.5561,1.588,7.25,1111122 
DISL,ioos:station:DISL:PPTA:1,2017-01-03T10:00:00Z,30.2791,-87.5561,1.592,7.53,1111122 
DISL,ioos:station:DISL:PPTA:1,2017-01-03T10:30:00Z,30.2791,-87.5561,1.582,7.39,1111122 
DISL,ioos:station:DISL:PPTA:1,2017-01-03T11:00:00Z,30.2791,-87.5561,1.545,7.34,1111122 
DISL,ioos:station:DISL:PPTA:1,2017-01-03T11:30:00Z,30.2791,-87.5561,1.553,7.32,1111122 
DISL,ioos:station:DISL:PPTA:1,2017-01-03T12:00:00Z,30.2791,-87.5561,1.523,7.28,1111122 
DISL,ioos:station:DISL:PPTA:1,2017-01-03T12:30:00Z,30.2791,-87.5561,1.506,7.26,1111122 
DISL,ioos:station:DISL:PPTA:1,2017-01-03T13:00:00Z,30.2791,-87.5561,1.496,7.26,1111122 
DISL,ioos:station:DISL:PPTA:1,2017-01-03T13:30:00Z,30.2791,-87.5561,1.509,7.27,1111122 
DISL,ioos:station:DISL:PPTA:1,2017-01-03T14:00:00Z,30.2791,-87.5561,1.51,7.37,1111122 
DISL,ioos:station:DISL:PPTA:1,2017-01-03T14:30:00Z,30.2791,-87.5561,1.509,7.39,1111122 
DISL,ioos:station:DISL:PPTA:1,2017-01-03T15:00:00Z,30.2791,-87.5561,1.487,7.41,1111122 
DISL,ioos:station:DISL:PPTA:1,2017-01-03T15:30:00Z,30.2791,-87.5561,1.483,7.46,1111122 
DISL,ioos:station:DISL:PPTA:1,2017-01-03T16:00:00Z,30.2791,-87.5561,1.481,7.6,1111122 
DISL,ioos:station:DISL:PPTA:1,2017-01-03T16:30:00Z,30.2791,-87.5561,1.475,7.56,1111122 
DISL,ioos:station:DISL:PPTA:1,2017-01-03T17:00:00Z,30.2791,-87.5561,1.473,7.67,1111122 
DISL,ioos:station:DISL:PPTA:1,2017-01-03T17:30:00Z,30.2791,-87.5561,1.467,7.87,1111122 
DISL,ioos:station:DISL:PPTA:1,2017-01-03T18:00:00Z,30.2791,-87.5561,1.475,8.01,1111122 
DISL,ioos:station:DISL:PPTA:1,2017-01-03T18:30:00Z,30.2791,-87.5561,1.483,8.07,1111122 
DISL,ioos:station:DISL:PPTA:1,2017-01-03T19:00:00Z,30.2791,-87.5561,1.471,8.05,1111122 
DISL,ioos:station:DISL:PPTA:1,2017-01-03T19:30:00Z,30.2791,-87.5561,1.508,7.95,1111122 
DISL,ioos:station:DISL:PPTA:1,2017-01-03T20:00:00Z,30.2791,-87.5561,1.486,7.93,1111122 
DISL,ioos:station:DISL:PPTA:1,2017-01-03T20:30:00Z,30.2791,-87.5561,1.503,7.81,1111122 
DISL,ioos:station:DISL:PPTA:1,2017-01-03T21:00:00Z,30.2791,-87.5561,1.499,7.93,1111122 
DISL,ioos:station:DISL:PPTA:1,2017-01-03T21:30:00Z,30.2791,-87.5561,1.486,7.54,1111122 
DISL,ioos:station:DISL:PPTA:1,2017-01-03T22:00:00Z,30.2791,-87.5561,1.501,8.51,1111122 
DISL,ioos:station:DISL:PPTA:1,2017-01-03T22:30:00Z,30.2791,-87.5561,1.495,8.46,1111122 
DISL,ioos:station:DISL:PPTA:1,2017-01-03T23:00:00Z,30.2791,-87.5561,1.498,8.46,1111122 
DISL,ioos:station:DISL:PPTA:1,2017-01-03T23:30:00Z,30.2791,-87.5561,1.505,8.45,1111122 
DISL,ioos:station:DISL:PPTA:1,2017-01-04T00:00:00Z,30.2791,-87.5561,1.516,8.33,1111122 
DISL,ioos:station:DISL:PPTA:1,2017-01-04T00:30:00Z,30.2791,-87.5561,1.526,8.27,1111122 
DISL,ioos:station:DISL:PPTA:1,2017-01-04T01:00:00Z,30.2791,-87.5561,1.524,8.12,1111122 
DISL,ioos:station:DISL:PPTA:1,2017-01-04T01:30:00Z,30.2791,-87.5561,1.536,7.81,1111122 
DISL,ioos:station:DISL:PPTA:1,2017-01-04T02:00:00Z,30.2791,-87.5561,1.53,7.94,1111122 
DISL,ioos:station:DISL:PPTA:1,2017-01-04T02:30:00Z,30.2791,-87.5561,1.533,7.89,1111122 
DISL,ioos:station:DISL:PPTA:1,2017-01-04T03:00:00Z,30.2791,-87.5561,1.55,8.06,1111122 
DISL,ioos:station:DISL:PPTA:1,2017-01-04T03:30:00Z,30.2791,-87.5561,1.553,8.11,1111122 
DISL,ioos:station:DISL:PPTA:1,2017-01-04T04:00:00Z,30.2791,-87.5561,1.553,7.92,1111122 
DISL,ioos:station:DISL:PPTA:1,2017-01-04T04:30:00Z,30.2791,-87.5561,1.555,8.03,1111122 
DISL,ioos:station:DISL:PPTA:1,2017-01-04T05:00:00Z,30.2791,-87.5561,1.555,8.15,1111122 
DISL,ioos:station:DISL:PPTA:1,2017-01-04T05:30:00Z,30.2791,-87.5561,1.559,7.79,1111122 
DISL,ioos:station:DISL:PPTA:1,2017-01-04T06:00:00Z,30.2791,-87.5561,1.545,8.02,1111122 
DISL,ioos:station:DISL:PPTA:1,2017-01-04T06:30:00Z,30.2791,-87.5561,1.538,6.05,1111122 
DISL,ioos:station:DISL:PPTA:1,2017-01-04T07:00:00Z,30.2791,-87.5561,1.544,6.27,1111122 
DISL,ioos:station:DISL:PPTA:1,2017-01-04T07:30:00Z,30.2791,-87.5561,1.554,7.76,1111122 
DISL,ioos:station:DISL:PPTA:1,2017-01-04T08:00:00Z,30.2791,-87.5561,1.555,7.76,1111122 
DISL,ioos:station:DISL:PPTA:1,2017-01-04T08:30:00Z,30.2791,-87.5561,1.533,6.33,1111122 
DISL,ioos:station:DISL:PPTA:1,2017-01-04T09:00:00Z,30.2791,-87.5561,1.526,7.12,1111122 
DISL,ioos:station:DISL:PPTA:1,2017-01-04T09:30:00Z,30.2791,-87.5561,1.518,7.91,1111122 
DISL,ioos:station:DISL:PPTA:1,2017-01-04T10:00:00Z,30.2791,-87.5561,1.49,6.66,1111122 
DISL,ioos:station:DISL:PPTA:1,2017-01-04T10:30:00Z,30.2791,-87.5561,1.489,6.23,1111122 
DISL,ioos:station:DISL:PPTA:1,2017-01-04T11:00:00Z,30.2791,-87.5561,1.483,7.04,1111122 
DISL,ioos:station:DISL:PPTA:1,2017-01-04T11:30:00Z,30.2791,-87.5561,1.47,7.08,1111122 
DISL,ioos:station:DISL:PPTA:1,2017-01-04T12:00:00Z,30.2791,-87.5561,1.452,7.47,1111122 
DISL,ioos:station:DISL:PPTA:1,2017-01-04T12:30:00Z,30.2791,-87.5561,1.434,7.79,1111122 
DISL,ioos:station:DISL:PPTA:1,2017-01-04T13:00:00Z,30.2791,-87.5561,1.419,7.84,1111122 
DISL,ioos:station:DISL:PPTA:1,2017-01-04T13:30:00Z,30.2791,-87.5561,1.407,7.89,1111122 
DISL,ioos:station:DISL:PPTA:1,2017-01-04T14:00:00Z,30.2791,-87.5561,1.41,7.87,1111122 
DISL,ioos:station:DISL:PPTA:1,2017-01-04T14:30:00Z,30.2791,-87.5561,1.392,7.83,1111122 
DISL,ioos:station:DISL:PPTA:1,2017-01-04T15:00:00Z,30.2791,-87.5561,1.386,7.89,1111122 
DISL,ioos:station:DISL:PPTA:1,2017-01-04T15:30:00Z,30.2791,-87.5561,1.392,7.72,1111122 
DISL,ioos:station:DISL:PPTA:1,2017-01-04T16:00:00Z,30.2791,-87.5561,1.395,7.59,1111122 
DISL,ioos:station:DISL:PPTA:1,2017-01-04T16:30:00Z,30.2791,-87.5561,1.39,7.8,1111122 
DISL,ioos:station:DISL:PPTA:1,2017-01-04T17:00:00Z,30.2791,-87.5561,1.39,7.73,1111122 
DISL,ioos:station:DISL:PPTA:1,2017-01-04T17:30:00Z,30.2791,-87.5561,1.395,7.48,1111122 
DISL,ioos:station:DISL:PPTA:1,2017-01-04T18:00:00Z,30.2791,-87.5561,1.389,7.35,1111122 
DISL,ioos:station:DISL:PPTA:1,2017-01-04T18:30:00Z,30.2791,-87.5561,1.38,7.42,1111122 
DISL,ioos:station:DISL:PPTA:1,2017-01-04T19:00:00Z,30.2791,-87.5561,1.385,7.43,1111122 
DISL,ioos:station:DISL:PPTA:1,2017-01-04T19:30:00Z,30.2791,-87.5561,1.397,7.79,1111122 
DISL,ioos:station:DISL:PPTA:1,2017-01-04T20:00:00Z,30.2791,-87.5561,1.412,7.77,1111122 
DISL,ioos:station:DISL:PPTA:1,2017-01-04T20:30:00Z,30.2791,-87.5561,1.411,7.73,1111122 
DISL,ioos:station:DISL:PPTA:1,2017-01-04T21:00:00Z,30.2791,-87.5561,1.392,7.62,1111122 
DISL,ioos:station:DISL:PPTA:1,2017-01-04T21:30:00Z,30.2791,-87.5561,1.387,7.45,1111122 
DISL,ioos:station:DISL:PPTA:1,2017-01-04T22:00:00Z,30.2791,-87.5561,1.396,7.66,1111122 
DISL,ioos:station:DISL:PPTA:1,2017-01-04T22:30:00Z,30.2791,-87.5561,1.374,7.92,1111122 
DISL,ioos:station:DISL:PPTA:1,2017-01-04T23:00:00Z,30.2791,-87.5561,1.376,7.81,1111122 
DISL,ioos:station:DISL:PPTA:1,2017-01-04T23:30:00Z,30.2791,-87.5561,1.395,7.89,1111122 
DISL,ioos:station:DISL:PPTA:1,2017-01-05T00:00:00Z,30.2791,-87.5561,1.395,7.84,1111122 
DISL,ioos:station:DISL:PPTA:1,2017-01-05T00:30:00Z,30.2791,-87.5561,1.366,7.72,1111122 
DISL,ioos:station:DISL:PPTA:1,2017-01-05T01:00:00Z,30.2791,-87.5561,1.388,7.83,1111122 
DISL,ioos:station:DISL:PPTA:1,2017-01-05T01:30:00Z,30.2791,-87.5561,1.344,7.82,1111122 
DISL,ioos:station:DISL:PPTA:1,2017-01-05T02:00:00Z,30.2791,-87.5561,1.333,7.69,1111122 
DISL,ioos:station:DISL:PPTA:1,2017-01-05T02:30:00Z,30.2791,-87.5561,1.381,7.86,1111122 
DISL,ioos:station:DISL:PPTA:1,2017-01-05T03:00:00Z,30.2791,-87.5561,1.349,7.83,1111122 
DISL,ioos:station:DISL:PPTA:1,2017-01-05T03:30:00Z,30.2791,-87.5561,1.367,7.82,1111122 
DISL,ioos:station:DISL:PPTA:1,2017-01-05T04:00:00Z,30.2791,-87.5561,1.389,7.79,1111122 
DISL,ioos:station:DISL:PPTA:1,2017-01-05T04:30:00Z,30.2791,-87.5561,1.34,7.78,1111122 
DISL,ioos:station:DISL:PPTA:1,2017-01-05T05:00:00Z,30.2791,-87.5561,1.38,7.76,1111122 
DISL,ioos:station:DISL:PPTA:1,2017-01-05T05:30:00Z,30.2791,-87.5561,1.349,7.78,1111122 
DISL,ioos:station:DISL:PPTA:1,2017-01-05T06:00:00Z,30.2791,-87.5561,1.376,7.68,1111122 
DISL,ioos:station:DISL:PPTA:1,2017-01-05T06:30:00Z,30.2791,-87.5561,1.362,7.46,1111122 
DISL,ioos:station:DISL:PPTA:1,2017-01-05T07:00:00Z,30.2791,-87.5561,1.345,7.69,1111122 
DISL,ioos:station:DISL:PPTA:1,2017-01-05T07:30:00Z,30.2791,-87.5561,1.364,7.75,1111122 
DISL,ioos:station:DISL:PPTA:1,2017-01-05T08:00:00Z,30.2791,-87.5561,1.357,7.69,1111122 
DISL,ioos:station:DISL:PPTA:1,2017-01-05T08:30:00Z,30.2791,-87.5561,1.358,7.74,1111122 
DISL,ioos:station:DISL:PPTA:1,2017-01-05T09:00:00Z,30.2791,-87.5561,1.352,7.18,1111122 
DISL,ioos:station:DISL:PPTA:1,2017-01-05T09:30:00Z,30.2791,-87.5561,1.34,7.72,1111122 
DISL,ioos:station:DISL:PPTA:1,2017-01-05T10:00:00Z,30.2791,-87.5561,1.341,6.85,1111122 
DISL,ioos:station:DISL:PPTA:1,2017-01-05T10:30:00Z,30.2791,-87.5561,1.338,7.76,1111122 
DISL,ioos:station:DISL:PPTA:1,2017-01-05T11:00:00Z,30.2791,-87.5561,1.32,7.06,1111122 
DISL,ioos:station:DISL:PPTA:1,2017-01-05T11:30:00Z,30.2791,-87.5561,1.329,7.75,1111122 
DISL,ioos:station:DISL:PPTA:1,2017-01-05T12:00:00Z,30.2791,-87.5561,1.306,7.71,1111122 
DISL,ioos:station:DISL:PPTA:1,2017-01-05T12:30:00Z,30.2791,-87.5561,1.3,7.6,1111122 
DISL,ioos:station:DISL:PPTA:1,2017-01-05T13:00:00Z,30.2791,-87.5561,1.317,6.15,1111122 
DISL,ioos:station:DISL:PPTA:1,2017-01-05T13:30:00Z,30.2791,-87.5561,1.289,7.17,1111122 
DISL,ioos:station:DISL:PPTA:1,2017-01-05T14:00:00Z,30.2791,-87.5561,1.32,7.52,1111122 
DISL,ioos:station:DISL:PPTA:1,2017-01-05T14:30:00Z,30.2791,-87.5561,1.305,7.75,1111122 
DISL,ioos:station:DISL:PPTA:1,2017-01-05T15:00:00Z,30.2791,-87.5561,1.288,7.45,1111122 
DISL,ioos:station:DISL:PPTA:1,2017-01-05T15:30:00Z,30.2791,-87.5561,1.296,7.19,1111122 
DISL,ioos:station:DISL:PPTA:1,2017-01-05T16:00:00Z,30.2791,-87.5561,1.299,7.65,1111122 
DISL,ioos:station:DISL:PPTA:1,2017-01-05T16:30:00Z,30.2791,-87.5561,1.299,7.65,1111122 
DISL,ioos:station:DISL:PPTA:1,2017-01-05T17:00:00Z,30.2791,-87.5561,1.311,7.64,1111122 
DISL,ioos:station:DISL:PPTA:1,2017-01-05T17:30:00Z,30.2791,-87.5561,1.296,7.31,1111122 
DISL,ioos:station:DISL:PPTA:1,2017-01-05T18:00:00Z,30.2791,-87.5561,1.299,7.58,1111122 
DISL,ioos:station:DISL:PPTA:1,2017-01-05T18:30:00Z,30.2791,-87.5561,1.31,7.42,1111122 
DISL,ioos:station:DISL:PPTA:1,2017-01-05T19:00:00Z,30.2791,-87.5561,1.306,7.58,1111122 
DISL,ioos:station:DISL:PPTA:1,2017-01-05T19:30:00Z,30.2791,-87.5561,1.308,7.28,1111122 
DISL,ioos:station:DISL:PPTA:1,2017-01-05T20:00:00Z,30.2791,-87.5561,1.313,7.51,1111122 
DISL,ioos:station:DISL:PPTA:1,2017-01-05T20:30:00Z,30.2791,-87.5561,1.296,6.34,1111122 
DISL,ioos:station:DISL:PPTA:1,2017-01-05T21:00:00Z,30.2791,-87.5561,1.296,5.68,1111122 
DISL,ioos:station:DISL:PPTA:1,2017-01-05T21:30:00Z,30.2791,-87.5561,1.291,6.19,1111122 
DISL,ioos:station:DISL:PPTA:1,2017-01-05T22:00:00Z,30.2791,-87.5561,1.296,6.16,1111122 
DISL,ioos:station:DISL:PPTA:1,2017-01-05T22:30:00Z,30.2791,-87.5561,1.304,6.28,1111122 
DISL,ioos:station:DISL:PPTA:1,2017-01-05T23:00:00Z,30.2791,-87.5561,1.323,6.03,1111122 
DISL,ioos:station:DISL:PPTA:1,2017-01-05T23:30:00Z,30.2791,-87.5561,1.322,6.23,1111122 
DISL,ioos:station:DISL:PPTA:1,2017-01-06T00:00:00Z,30.2791,-87.5561,1.316,6.11,1111122 
DISL,ioos:station:DISL:PPTA:1,2017-01-06T00:30:00Z,30.2791,-87.5561,1.326,5.85,1111122 
DISL,ioos:station:DISL:PPTA:1,2017-01-06T01:00:00Z,30.2791,-87.5561,1.339,4.5,1111122 
DISL,ioos:station:DISL:PPTA:1,2017-01-06T01:30:00Z,30.2791,-87.5561,1.339,7.18,1111122 
DISL,ioos:station:DISL:PPTA:1,2017-01-06T02:00:00Z,30.2791,-87.5561,1.345,7.17,1111122 
DISL,ioos:station:DISL:PPTA:1,2017-01-06T02:30:00Z,30.2791,-87.5561,1.363,5.88,1111122 
DISL,ioos:station:DISL:PPTA:1,2017-01-06T03:00:00Z,30.2791,-87.5561,1.356,6.77,1111122 
DISL,ioos:station:DISL:PPTA:1,2017-01-06T03:30:00Z,30.2791,-87.5561,1.365,6.87,1111122 
DISL,ioos:station:DISL:PPTA:1,2017-01-06T04:00:00Z,30.2791,-87.5561,1.365,7.37,1111122 
DISL,ioos:station:DISL:PPTA:1,2017-01-06T04:30:00Z,30.2791,-87.5561,1.345,7.55,1111122 
DISL,ioos:station:DISL:PPTA:1,2017-01-06T05:00:00Z,30.2791,-87.5561,1.357,7.24,1111122 
DISL,ioos:station:DISL:PPTA:1,2017-01-06T05:30:00Z,30.2791,-87.5561,1.351,7.47,1111122 
DISL,ioos:station:DISL:PPTA:1,2017-01-06T06:00:00Z,30.2791,-87.5561,1.37,7.5,1111122 
DISL,ioos:station:DISL:PPTA:1,2017-01-06T06:30:00Z,30.2791,-87.5561,1.359,7.61,1111122 
DISL,ioos:station:DISL:PPTA:1,2017-01-06T07:00:00Z,30.2791,-87.5561,1.356,7.47,1111122 
DISL,ioos:station:DISL:PPTA:1,2017-01-06T07:30:00Z,30.2791,-87.5561,1.347,7.53,1111122 
DISL,ioos:station:DISL:PPTA:1,2017-01-06T08:00:00Z,30.2791,-87.5561,1.351,7.31,1111122 
DISL,ioos:station:DISL:PPTA:1,2017-01-06T08:30:00Z,30.2791,-87.5561,1.348,7.56,1111122 
DISL,ioos:station:DISL:PPTA:1,2017-01-06T09:00:00Z,30.2791,-87.5561,1.355,7.08,1111122 
DISL,ioos:station:DISL:PPTA:1,2017-01-06T09:30:00Z,30.2791,-87.5561,1.359,7.22,1111122 
DISL,ioos:station:DISL:PPTA:1,2017-01-06T10:00:00Z,30.2791,-87.5561,1.344,7.25,1111122 
DISL,ioos:station:DISL:PPTA:1,2017-01-06T10:30:00Z,30.2791,-87.5561,1.345,7.47,1111122 
DISL,ioos:station:DISL:PPTA:1,2017-01-06T11:00:00Z,30.2791,-87.5561,1.319,7.65,1111122 
DISL,ioos:station:DISL:PPTA:1,2017-01-06T11:30:00Z,30.2791,-87.5561,1.317,7.52,1111122 
DISL,ioos:station:DISL:PPTA:1,2017-01-06T12:00:00Z,30.2791,-87.5561,1.329,7.65,1111122 
DISL,ioos:station:DISL:PPTA:1,2017-01-06T12:30:00Z,30.2791,-87.5561,1.324,6.68,1111122 
DISL,ioos:station:DISL:PPTA:1,2017-01-06T13:00:00Z,30.2791,-87.5561,1.322,7.8,1111122 
DISL,ioos:station:DISL:PPTA:1,2017-01-06T13:30:00Z,30.2791,-87.5561,1.343,7.22,1111122 
DISL,ioos:station:DISL:PPTA:1,2017-01-06T14:00:00Z,30.2791,-87.5561,1.345,7.85,1111122 
DISL,ioos:station:DISL:PPTA:1,2017-01-06T14:30:00Z,30.2791,-87.5561,1.312,7.65,1111122 
DISL,ioos:station:DISL:PPTA:1,2017-01-06T15:00:00Z,30.2791,-87.5561,1.34,7.9,1111122 
DISL,ioos:station:DISL:PPTA:1,2017-01-06T15:30:00Z,30.2791,-87.5561,1.301,5.21,1111122 
DISL,ioos:station:DISL:PPTA:1,2017-01-06T16:00:00Z,30.2791,-87.5561,1.351,7.77,1111122 
DISL,ioos:station:DISL:PPTA:1,2017-01-06T16:30:00Z,30.2791,-87.5561,1.346,7.91,1111122 
DISL,ioos:station:DISL:PPTA:1,2017-01-06T17:00:00Z,30.2791,-87.5561,1.365,7.93,1111122 
DISL,ioos:station:DISL:PPTA:1,2017-01-06T17:30:00Z,30.2791,-87.5561,1.378,7.73,1111122 
DISL,ioos:station:DISL:PPTA:1,2017-01-06T18:00:00Z,30.2791,-87.5561,1.361,7.96,1111122 
DISL,ioos:station:DISL:PPTA:1,2017-01-06T18:30:00Z,30.2791,-87.5561,1.381,6.37,1111122 
DISL,ioos:station:DISL:PPTA:1,2017-01-06T19:00:00Z,30.2791,-87.5561,1.351,7.69,1111122 
DISL,ioos:station:DISL:PPTA:1,2017-01-06T19:30:00Z,30.2791,-87.5561,1.35,8.32,1111122 
DISL,ioos:station:DISL:PPTA:1,2017-01-06T20:00:00Z,30.2791,-87.5561,1.428,8.37,1111122 
DISL,ioos:station:DISL:PPTA:1,2017-01-06T20:30:00Z,30.2791,-87.5561,1.464,7.9,1111122 
DISL,ioos:station:DISL:PPTA:1,2017-01-06T21:00:00Z,30.2791,-87.5561,1.421,5.64,1111122 
DISL,ioos:station:DISL:PPTA:1,2017-01-06T21:30:00Z,30.2791,-87.5561,1.445,6.46,1111122 
DISL,ioos:station:DISL:PPTA:1,2017-01-06T22:00:00Z,30.2791,-87.5561,1.385,6.6,1111122 